Total_Precipitation_Accumulation
0.06 0.05 0.09 0.08 0.06 0.06 0.08 0.11 0.12 0.12 0.09 0.08 0.06 0.04 0.02 0.02 0.03 0.03 0.03 0.05 0.06 0.07 0.08 0.10 0.11 0.10 0.10 0.11 0.12 0.12 0.14 0.16 0.18 0.19 0.22 0.25 0.30 0.40 0.51 0.52 0.64 0.51 0.30
0.02 0.04 0.10 0.10 0.07 0.07 0.09 0.11 0.12 0.11 0.11 0.10 0.08 0.06 0.04 0.03 0.03 0.04 0.05 0.06 0.06 0.07 0.07 0.07 0.07 0.06 0.06 0.07 0.09 0.09 0.12 0.16 0.22 0.31 0.36 0.36 0.40 0.52 0.54 0.47 0.68 0.43 0.26
0.02 0.03 0.07 0.11 0.08 0.07 0.07 0.09 0.11 0.11 0.12 0.10 0.09 0.08 0.06 0.04 0.04 0.05 0.06 0.06 0.06 0.07 0.06 0.05 0.05 0.05 0.05 0.05 0.06 0.08 0.11 0.18 0.30 0.46 0.65 0.60 0.35 0.48 0.47 0.41 0.41 0.24 0.21
0.02 0.02 0.03 0.09 0.09 0.07 0.06 0.09 0.10 0.11 0.11 0.10 0.09 0.08 0.07 0.07 0.06 0.06 0.06 0.07 0.09 0.08 0.06 0.05 0.04 0.04 0.04 0.05 0.07 0.09 0.14 0.21 0.34 0.58 0.89 0.57 0.28 0.27 0.31 0.28 0.25 0.18 0.17
0.04 0.03 0.04 0.06 0.08 0.08 0.08 0.08 0.09 0.09 0.10 0.09 0.09 0.08 0.07 0.07 0.08 0.07 0.08 0.10 0.10 0.08 0.06 0.05 0.04 0.03 0.03 0.05 0.07 0.10 0.16 0.24 0.40 0.62 0.63 0.52 0.53 0.29 0.21 0.22 0.21 0.16 0.14
0.06 0.05 0.07 0.09 0.08 0.08 0.07 0.07 0.07 0.08 0.08 0.09 0.08 0.08 0.07 0.08 0.08 0.09 0.09 0.10 0.10 0.09 0.07 0.05 0.04 0.03 0.05 0.06 0.08 0.13 0.20 0.31 0.44 0.43 0.41 0.44 0.49 0.34 0.22 0.27 0.26 0.20 0.16
0.13 0.10 0.11 0.14 0.13 0.11 0.09 0.09 0.09 0.08 0.08 0.09 0.09 0.09 0.08 0.08 0.10 0.10 0.10 0.09 0.11 0.09 0.08 0.06 0.05 0.05 0.07 0.07 0.10 0.15 0.24 0.38 0.42 0.38 0.39 0.56 0.54 0.35 0.34 0.49 0.54 0.39 0.26
0.28 0.20 0.15 0.18 0.18 0.16 0.14 0.13 0.12 0.11 0.11 0.10 0.09 0.09 0.09 0.10 0.11 0.10 0.10 0.09 0.12 0.13 0.10 0.07 0.05 0.06 0.08 0.09 0.12 0.17 0.26 0.30 0.30 0.38 0.42 0.54 0.46 0.40 0.52 0.74 0.78 0.62 0.46
0.34 0.33 0.27 0.20 0.18 0.19 0.21 0.22 0.19 0.15 0.14 0.12 0.11 0.10 0.09 0.11 0.13 0.13 0.13 0.14 0.14 0.16 0.15 0.12 0.09 0.09 0.09 0.11 0.13 0.16 0.24 0.32 0.38 0.49 0.54 0.50 0.36 0.38 0.60 0.77 0.70 0.64 0.56
0.45 0.42 0.41 0.35 0.29 0.23 0.22 0.25 0.25 0.22 0.20 0.16 0.15 0.14 0.14 0.17 0.18 0.20 0.19 0.20 0.22 0.23 0.23 0.23 0.20 0.18 0.18 0.20 0.22 0.24 0.29 0.28 0.44 0.49 0.67 0.69 0.47 0.55 0.80 0.90 0.78 0.71 0.64
0.65 0.49 0.40 0.42 0.38 0.32 0.25 0.23 0.26 0.27 0.26 0.23 0.24 0.23 0.25 0.35 0.48 0.53 0.52 0.55 0.53 0.50 0.48 0.44 0.44 0.43 0.36 0.28 0.35 0.48 0.36 0.23 0.46 0.58 0.68 0.71 0.61 0.78 1.07 1.13 1.05 0.92 0.81
0.87 0.59 0.51 0.43 0.40 0.34 0.27 0.34 0.38 0.39 0.42 0.38 0.49 0.55 0.62 0.76 0.78 0.65 0.86 0.96 0.93 0.98 0.90 0.86 1.01 0.86 0.64 0.56 0.92 1.25 0.54 0.36 0.44 0.56 0.59 0.65 0.89 1.20 1.44 1.34 1.21 1.11 1.00
0.89 0.90 0.82 0.61 0.53 0.49 0.53 0.46 0.49 0.58 0.73 0.69 0.71 0.85 1.04 0.99 0.83 0.74 0.89 1.19 1.34 1.45 1.39 1.47 1.56 1.17 1.12 1.27 1.42 1.35 0.84 0.75 0.76 0.76 0.79 1.01 1.35 1.64 1.78 1.55 1.38 1.30 1.20
1.20 1.35 1.42 1.00 0.90 0.80 0.79 0.74 0.66 0.70 0.87 1.00 1.16 1.22 1.38 1.40 1.25 1.10 1.13 1.35 1.53 1.69 1.99 1.99 1.87 1.71 1.68 1.59 1.52 1.33 1.18 1.17 1.10 1.22 1.42 1.38 1.51 1.75 1.95 1.82 1.61 1.50 1.44
1.77 1.87 2.06 1.54 1.31 1.26 1.28 1.23 1.05 1.08 1.18 1.28 1.49 1.61 1.71 1.87 1.81 1.71 1.63 1.58 1.49 1.66 1.98 2.17 2.09 2.08 2.03 1.92 1.72 1.56 1.43 1.37 1.34 1.45 1.57 1.77 1.77 1.74 1.85 1.98 1.87 1.70 1.60
2.21 2.30 2.39 2.15 2.01 1.85 1.75 1.74 1.67 1.43 1.43 1.44 1.55 1.60 1.78 1.99 2.21 2.29 2.18 2.00 1.71 1.68 1.78 2.10 2.21 2.35 2.24 2.11 1.57 1.49 1.49 1.51 1.55 1.54 1.60 2.09 2.14 1.77 1.67 1.77 1.91 1.92 1.81
2.93 2.81 2.75 2.62 2.73 2.54 2.27 2.04 1.82 1.72 1.73 1.78 1.80 1.76 1.93 2.17 2.36 2.36 2.15 1.83 1.62 1.70 1.79 1.74 1.79 2.09 1.88 1.74 1.54 1.64 1.68 1.59 1.55 1.54 1.58 1.90 1.98 1.68 1.45 1.42 1.60 1.76 1.89
3.63 3.37 3.14 2.79 2.90 2.89 2.68 2.47 2.18 2.00 2.06 1.96 1.81 1.74 1.81 2.02 2.04 2.06 1.72 1.35 1.42 1.63 1.71 1.68 1.64 1.73 1.71 1.74 1.72 1.68 1.65 1.55 1.33 1.26 1.18 1.20 1.33 1.16 1.24 1.41 1.40 1.40 1.66
3.90 3.92 3.78 3.64 3.34 3.17 3.02 2.83 2.58 2.36 2.08 1.82 1.75 1.68 1.57 1.50 1.51 1.60 1.32 1.19 1.31 1.44 1.48 1.45 1.60 1.69 1.57 1.63 1.64 1.53 1.26 1.14 1.01 0.89 0.86 0.81 0.87 0.92 0.93 1.11 1.19 1.25 1.58
3.77 4.19 4.26 4.06 3.65 3.19 2.83 2.50 2.36 2.18 1.99 1.79 1.65 1.49 1.29 1.19 1.21 1.37 1.26 1.14 1.25 1.33 1.30 1.44 1.56 1.63 1.41 1.38 1.31 1.07 0.89 0.67 0.63 0.58 0.51 0.57 0.61 0.62 0.70 0.86 1.12 1.01 1.39
3.46 3.98 4.08 3.99 3.26 2.60 2.28 2.03 1.90 1.71 1.52 1.51 1.45 1.32 1.26 1.15 1.12 1.28 1.17 1.07 1.06 1.08 1.04 1.18 1.31 1.31 1.08 1.28 1.43 0.97 0.67 0.52 0.45 0.36 0.35 0.40 0.43 0.50 0.67 0.89 1.09 1.10 1.24
3.04 3.56 3.53 3.05 2.48 2.04 1.74 1.59 1.47 1.39 1.25 1.14 1.02 0.96 0.92 0.92 0.95 1.02 1.00 0.88 0.85 0.88 0.85 0.93 1.06 1.06 0.94 1.20 1.35 1.22 0.87 0.66 0.52 0.37 0.37 0.38 0.42 0.54 0.62 0.73 1.01 1.16 1.20
2.70 2.73 2.30 1.93 1.63 1.38 1.21 1.13 1.12 1.05 0.93 0.75 0.63 0.59 0.63 0.67 0.68 0.66 0.66 0.69 0.73 0.73 0.74 0.81 0.96 1.08 0.95 0.97 1.19 1.33 1.06 0.76 0.67 0.51 0.50 0.54 0.59 0.68 0.75 0.88 1.01 1.12 1.21
1.95 1.81 1.63 1.42 1.21 1.08 1.04 0.96 0.96 0.82 0.70 0.59 0.49 0.49 0.50 0.51 0.49 0.47 0.49 0.58 0.65 0.69 0.74 0.68 0.72 0.89 0.94 0.86 0.95 1.06 1.08 1.09 1.03 0.76 0.57 0.54 0.61 0.65 0.68 0.73 0.83 0.99 1.07
1.29 1.26 1.15 1.23 1.21 1.07 0.98 0.90 0.86 0.73 0.60 0.50 0.49 0.53 0.52 0.50 0.47 0.43 0.42 0.44 0.53 0.60 0.66 0.68 0.69 0.75 0.81 0.80 0.81 0.86 0.93 1.04 1.03 0.95 0.71 0.55 0.55 0.54 0.61 0.68 0.77 0.83 0.91
0.75 0.82 0.86 0.94 1.01 0.92 0.84 0.80 0.78 0.70 0.61 0.51 0.47 0.47 0.44 0.44 0.44 0.43 0.42 0.44 0.45 0.46 0.49 0.56 0.62 0.67 0.72 0.75 0.74 0.81 0.89 0.88 0.88 0.99 0.87 0.71 0.65 0.59 0.67 0.75 0.86 0.95 0.96